Notices

What's New in latest Release from April 7th, 2021:

- Updated Glossary, including Speed of Maximum Gust, and Total Hourly Precipitation

- Updated national and regional climate services offices contacts and prices information

- Addition of station inventory lists for 1981-2010, 1971-2000, and 1961-1990 Normals.

If you haven't already, please take our survey and provide feedback about our website: https://eccc.sondage-survey.ca/f/LanguageSelection.aspx?s=442ca660-fcf1-47c0-95a9-59707d6fd709

Hourly Data Report for January 29, 2017

TORONTO CITY
ONTARIO

43°40'00.000" N
79°24'00.000" W
112.50 m
6158355
71508
XTO

Download Data

Hourly Data (January 2017)
Hourly Data Report for January 29, 2017
TIME
LST
Temp Definition
°C
Dew Point Definition
°C
Rel Hum Definition
%
Precip. Amount Definition
mm

Wind Dir Definition
10's deg

Wind Spd Definition
km/h
Visibility Definition
km
Stn Press Definition
kPa
Hmdx Definition


Wind Chill Definition


Weather Definition


00:00 -0.7 -4.5 75 0.0 LegendMM LegendMM   98.76     LegendNANA
01:00 -1.0 -4.7 76 0.0 LegendMM LegendMM   98.77     LegendNANA
02:00 -1.3 -4.7 78 0.0 LegendMM LegendMM   98.78     LegendNANA
03:00 -1.6 -5.9 72 0.0 LegendMM LegendMM   98.82     LegendNANA
04:00 -2.1 -7.9 64 0.0 LegendMM LegendMM   98.86     LegendNANA
05:00 -2.8 -8.4 66 0.0 LegendMM LegendMM   98.88     LegendNANA
06:00 -3.0 -8.6 65 0.0 LegendMM LegendMM   98.91     LegendNANA
07:00 -2.8 -8.3 66 0.0 LegendMM LegendMM   98.94     LegendNANA
08:00 -2.8 -8.4 65 0.0 LegendMM LegendMM   98.99     LegendNANA
09:00 -2.9 -9.2 62 0.0 LegendMM LegendMM   99.04     LegendNANA
10:00 -2.6 -9.5 59 0.0 LegendMM LegendMM   99.13     LegendNANA
11:00 -2.3 -9.8 56 0.0 LegendMM LegendMM   99.14     LegendNANA
12:00 -1.8 -9.9 54 0.0 LegendMM LegendMM   99.12     LegendNANA
13:00 -2.3 -8.3 63 0.0 LegendMM LegendMM   99.11     LegendNANA
14:00 -2.3 -8.5 62 0.0 LegendMM LegendMM   99.11     LegendNANA
15:00 -2.3 -9.6 57 0.0 LegendMM LegendMM   99.16     LegendNANA
16:00 -2.4 -9.9 56 0.0 LegendMM LegendMM   99.25     LegendNANA
17:00 -2.9 -10.8 55 0.0 LegendMM LegendMM   99.32     LegendNANA
18:00 -3.3 -11.1 55 0.0 LegendMM LegendMM   99.36     LegendNANA
19:00 -3.6 -11.0 57 0.0 LegendMM LegendMM   99.40     LegendNANA
20:00 -4.2 -9.7 65 0.0 LegendMM LegendMM   99.43     LegendNANA
21:00 -4.9 -11.6 59 0.0 LegendMM LegendMM   99.45     LegendNANA
22:00 -5.4 -11.2 63 0.0 LegendMM LegendMM   99.44     LegendNANA
23:00 -5.6 -11.4 63 0.0 LegendMM LegendMM   99.45     LegendNANA

Notes on Data Quality.

Legend

  • E = Estimated
  • M = Missing
  • NA = Not Available*
  • [empty] = Indicates an unobserved value
Date modified: